Location: Unspecified
(0.0000°N, 0.0000°E)
Time: 07:01:40
(UTC+00:00)

Vanguard 3 - All Passes

Search period start: 26 October 2020 00:00
Search period end: 05 November 2020 00:00
Orbit: 507 x 3263 km, 33.4° (Epoch: 25 October)

Date Brightness Start Highest point End Pass type
(mag) Time Alt. Az. Time Alt. Az. Time Alt. Az.
26 Oct - 00:29:48 10° SSW 00:37:15 30° SE 00:48:49 10° E visible
26 Oct - 02:39:46 10° SW 02:51:00 88° NW 03:09:44 10° NE visible
26 Oct - 04:54:22 10° W 05:08:22 40° NNW 05:26:19 10° NE visible
26 Oct - 07:16:44 10° NW 07:29:23 20° NNW 07:41:41 10° NNE daylight
26 Oct - 09:42:41 10° NNW 09:52:04 16° N 09:59:49 10° NE daylight
26 Oct - 12:00:20 10° NNW 12:11:11 26° NNE 12:18:19 10° ENE daylight
26 Oct - 14:15:49 10° NW 14:25:54 79° NE 14:31:28 10° ESE daylight
26 Oct - 16:34:39 10° WSW 16:37:09 13° SW 16:39:18 10° SSW daylight
26 Oct - 23:19:19 10° SSE 23:22:35 13° SE 23:26:31 10° ESE night (unlit)
27 Oct - 01:26:12 10° SW 01:35:21 61° SE 01:51:20 10° ENE visible
27 Oct - 03:38:22 10° WSW 03:50:45 55° NNW 04:09:26 10° NE visible
27 Oct - 05:56:35 10° WNW 06:10:06 26° NNW 06:25:15 10° NNE daylight
27 Oct - 08:22:10 10° NW 08:32:50 16° N 08:42:22 10° NNE daylight
27 Oct - 10:43:08 10° NNW 10:54:13 21° NNE 11:02:19 10° ENE daylight
27 Oct - 12:59:06 10° NW 13:11:00 47° NNE 13:17:47 10° E daylight
27 Oct - 15:15:58 10° WNW 15:23:35 38° SW 15:28:20 10° SSE daylight
28 Oct - 00:13:35 10° SSW 00:20:36 33° SE 00:31:56 10° E visible
28 Oct - 02:23:43 10° WSW 02:34:06 78° NW 02:51:58 10° NE visible
28 Oct - 04:38:38 10° W 04:51:34 35° NNW 05:08:33 10° NE visible
28 Oct - 07:01:04 10° NW 07:13:04 19° N 07:25:02 10° NNE daylight
28 Oct - 09:24:56 10° NNW 09:36:02 18° N 09:45:03 10° NE daylight
28 Oct - 11:42:12 10° NW 11:55:05 33° NNE 12:03:10 10° E daylight
28 Oct - 13:58:30 10° NW 14:09:39 83° SW 14:15:43 10° SE daylight
28 Oct - 16:19:33 10° WSW 16:20:57 11° SW 16:22:14 10° SSW daylight
28 Oct - 23:02:43 10° SSE 23:06:16 14° SE 23:10:43 10° ESE night (unlit)
29 Oct - 01:10:07 10° SW 01:18:34 70° SE 01:33:51 10° ENE visible
29 Oct - 03:22:33 10° W 03:33:57 47° NNW 03:51:31 10° NE visible
29 Oct - 05:41:07 10° WNW 05:53:36 23° NNW 06:07:51 10° NNE daylight
29 Oct - 08:05:31 10° NW 08:16:44 17° N 08:26:53 10° NE daylight
29 Oct - 10:24:57 10° NNW 10:38:04 25° NNE 10:47:22 10° ENE daylight
29 Oct - 12:41:18 10° NW 12:54:46 59° NNE 13:02:12 10° ESE daylight
29 Oct - 14:59:19 10° WNW 15:07:15 32° SW 15:12:16 10° SSE daylight
29 Oct - 23:57:26 10° SSW 00:04:00 37° SE 00:14:59 10° ENE visible
30 Oct - 02:07:49 10° WSW 02:17:22 67° NNW 02:34:06 10° NE visible
30 Oct - 04:23:07 10° WNW 04:34:57 30° NNW 04:50:43 10° NNE visible
30 Oct - 06:45:23 10° NW 06:56:51 18° N 07:08:30 10° NNE daylight
30 Oct - 09:07:10 10° NNW 09:19:53 21° NNE 09:30:08 10° NE daylight
30 Oct - 11:24:06 10° NW 11:38:49 40° NNE 11:47:47 10° E daylight
30 Oct - 13:41:11 10° WNW 13:53:16 69° SW 13:59:50 10° SE daylight
30 Oct - 22:46:13 10° S 22:49:57 15° SE 22:54:46 10° ESE night (unlit)
31 Oct - 00:54:07 10° SW 01:01:54 80° SE 01:16:18 10° ENE visible
31 Oct - 03:06:54 10° W 03:17:20 40° NNW 03:33:30 10° NE visible
31 Oct - 05:25:50 10° NW 05:37:14 21° NNW 05:50:26 10° NNE daylight
31 Oct - 07:48:42 10° NNW 08:00:36 18° N 08:11:28 10° NE daylight
31 Oct - 10:06:51 10° NNW 10:21:45 30° NNE 10:32:10 10° ENE daylight
31 Oct - 12:23:30 10° NW 12:38:22 72° NNE 12:46:29 10° ESE daylight
31 Oct - 14:42:41 10° W 14:50:51 28° SW 14:56:07 10° SSE daylight
31 Oct - 23:41:20 10° SSW 23:47:28 42° SE 23:58:00 10° ENE night (unlit)
01 Nov - 01:52:03 10° WSW 02:00:49 56° NNW 02:16:11 10° NE visible
01 Nov - 04:07:49 10° WNW 04:18:31 26° NNW 04:32:47 10° NNE visible
01 Nov - 06:29:38 10° NW 06:40:41 18° N 06:52:07 10° NE daylight
01 Nov - 08:49:26 10° NNW 09:03:35 24° NNE 09:15:00 10° ENE daylight
01 Nov - 11:06:04 10° NW 11:22:22 49° NNE 11:32:12 10° E daylight
01 Nov - 13:23:52 10° WNW 13:36:45 59° SW 13:43:52 10° SE daylight
01 Nov - 22:29:49 10° S 22:33:37 17° SE 22:38:43 10° E night (unlit)
02 Nov - 00:38:15 10° SW 00:45:23 87° NW 00:58:43 10° NE visible
02 Nov - 02:51:27 10° W 03:00:55 33° NNW 03:15:25 10° NE visible
02 Nov - 05:10:39 10° NW 05:20:59 19° N 05:33:02 10° NNE visible
02 Nov - 07:31:45 10° NNW 07:44:22 20° N 07:56:05 10° NE daylight
02 Nov - 09:48:49 10° NW 10:05:16 36° NNE 10:16:45 10° E daylight
02 Nov - 12:05:44 10° NW 12:21:47 84° NE 12:30:38 10° ESE daylight
02 Nov - 14:26:05 10° W 14:34:23 25° SW 14:39:55 10° S daylight
02 Nov - 23:25:18 10° SW 23:31:01 50° SE 23:40:59 10° ENE night (unlit)
03 Nov - 01:36:26 10° W 01:44:26 46° NNW 01:58:14 10° NE visible
03 Nov - 03:52:43 10° WNW 04:02:14 22° NNW 04:14:47 10° NNE visible
03 Nov - 06:13:44 10° NNW 06:24:31 17° N 06:35:52 10° NE daylight
03 Nov - 08:31:43 10° NNW 08:47:08 27° NNE 08:59:40 10° ENE daylight
03 Nov - 10:48:05 10° NW 11:05:44 58° NNE 11:16:27 10° ESE daylight
03 Nov - 13:06:33 10° WNW 13:20:06 51° SW 13:27:48 10° SE daylight
03 Nov - 22:13:29 10° S 22:17:18 20° SE 22:22:34 10° E night (unlit)
04 Nov - 00:22:28 10° WSW 00:29:01 72° NNW 00:41:08 10° NE visible
04 Nov - 02:36:12 10° WNW 02:44:40 27° NNW 02:57:15 10° NNE visible
04 Nov - 04:55:35 10° NW 05:04:51 17° N 05:15:41 10° NNE visible
04 Nov - 07:14:43 10° NNW 07:28:02 21° NNE 07:40:38 10° ENE daylight
04 Nov - 09:30:52 10° NW 09:48:35 41° NNE 10:01:06 10° E daylight
04 Nov - 11:47:59 10° NW 12:05:02 85° SW 12:14:39 10° SE daylight
04 Nov - 14:09:31 10° W 14:17:54 22° SW 14:23:39 10° S daylight
04 Nov - 23:09:21 10° SW 23:14:39 61° SE 23:23:58 10° ENE night (unlit)
